GW2092 Weather Reports


time (UTC)temp
F
wind
direction
speed
knots
gust
knots
rain 1hr
in
rain 24hr
in
rain mn
in
humidity
%
barometer
mb
20260901183052 100 0 0.0 4.3 0.00 0.00 0.00 39 1017.8
20260901181551 99 252 0.0 1.7 0.00 0.00 0.00 39 1018.1
20260901180050 98 0 0.0 0.9 0.00 0.00 0.00 41 1018.3
20260901174547 99 207 0.0 1.7 0.00 0.00 0.00 40 1018.5
20260901173054 100 158 0.9 6.1 0.00 0.00 0.00 40 1018.7
20260901171551 99 148 0.0 3.5 0.00 0.00 0.00 43 1018.8
20260901170047 98 222 0.0 4.3 0.00 0.00 0.00 44 1018.9
20260901164557 98 0 0.0 5.2 0.00 0.00 0.00 45 1019.1
20260901163050 97 182 0.0 2.6 0.00 0.00 0.00 47 1019.4
20260901161550 95 160 0.0 2.6 0.00 0.00 0.00 49 1019.4
20260901160058 94 199 0.9 4.3 0.00 0.00 0.00 51 1019.5
20260901154547 93 0 0.0 3.5 0.00 0.00 0.00 52 1019.5
20260901153049 93 73 0.0 4.3 0.00 0.00 0.00 53 1019.6
20260901151554 91 195 1.7 6.1 0.00 0.00 0.00 54 1019.8
20260901150049 91 134 0.0 4.3 0.00 0.00 0.00 55 1019.8
20260901144546 90 214 0.0 5.2 0.00 0.00 0.00 56 1019.7
20260901143055 88 122 0.9 6.1 0.00 0.00 0.00 58 1019.8
20260901141553 86 161 0.0 2.6 0.00 0.00 0.00 60 1019.9
20260901140048 84 214 0.9 5.2 0.00 0.00 0.00 63 1019.8
20260901134545 82 191 0.0 2.6 0.00 0.00 0.00 66 1019.9
20260901133043 80 0 0.0 1.7 0.00 0.00 0.00 69 1019.8
20260901131547 78 0 0.0 0.9 0.00 0.00 0.00 71 1019.5
20260901130047 76 0 0.0 0.0 0.00 0.00 0.00 74 1019.4
20260901124555 74 0 0.0 0.0 0.00 0.00 0.00 75 1019.1
20260901123052 74 0 0.0 0.0 0.00 0.00 0.00 76 1019.1
20260901121547 73 0 0.0 0.0 0.00 0.00 0.00 77 1018.9
20260901120056 73 0 0.0 0.0 0.00 0.00 0.00 76 1018.6
20260901114553 74 0 0.0 0.0 0.00 0.00 0.00 74 1018.5
20260901113050 74 0 0.0 0.0 0.00 0.00 0.00 75 1018.5
20260901111556 74 0 0.0 0.0 0.00 0.00 0.00 74 1018.5
20260901110046 74 0 0.0 0.0 0.00 0.00 0.00 73 1018.4
20260901104551 75 0 0.0 0.0 0.00 0.00 0.00 72 1018.4
20260901103049 76 0 0.0 0.0 0.00 0.00 0.00 71 1018.2
20260901101606 76 0 0.0 0.0 0.00 0.00 0.00 70 1018.2
20260901100053 76 0 0.0 0.0 0.00 0.00 0.00 70 1018.2
20260901094549 76 0 0.0 0.0 0.00 0.00 0.00 69 1018.2
20260901093048 76 0 0.0 0.0 0.00 0.00 0.00 69 1018.1
20260901091610 76 0 0.0 0.0 0.00 0.00 0.00 69 1018.0
20260901090055 76 0 0.0 0.0 0.00 0.00 0.00 69 1018.0
20260901084548 76 0 0.0 0.0 0.00 0.00 0.00 68 1017.9
20260901083057 76 0 0.0 0.0 0.00 0.00 0.00 68 1017.8
20260901081555 76 0 0.0 0.0 0.00 0.00 0.00 68 1017.7
20260901080100 76 0 0.0 0.0 0.00 0.00 0.00 67 1017.7
20260901074551 76 0 0.0 0.0 0.00 0.00 0.00 66 1017.5
20260901073048 77 0 0.0 0.0 0.00 0.00 0.00 65 1017.6
20260901071554 77 0 0.0 0.0 0.00 0.00 0.00 65 1017.6
20260901070056 77 0 0.0 1.7 0.00 0.00 0.00 65 1017.6
20260901064548 77 0 0.0 0.0 0.00 0.00 0.00 64 1017.7
20260901063117 77 0 0.0 0.0 0.00 0.00 0.00 64 1017.6
20260901061554 77 0 0.0 0.0 0.00 0.00 0.00 64 1017.5
20260901060049 77 0 0.0 0.9 0.00 0.00 0.00 63 1017.6
20260901054544 77 0 0.0 0.0 0.00 0.00 0.00 63 1017.3
20260901053115 78 0 0.0 0.0 0.00 0.00 0.00 62 1017.4
20260901051603 78 0 0.0 0.0 0.00 0.00 0.00 62 1017.4
20260901050056 79 0 0.0 0.0 0.00 0.00 0.00 61 1017.3
20260901044557 78 0 0.0 0.9 0.00 0.00 0.00 61 1017.1
20260901043100 78 0 0.0 0.0 0.00 0.00 0.00 61 1017.3
20260901041608 79 0 0.0 0.0 0.00 0.00 0.00 60 1017.4
20260901040047 79 0 0.0 0.9 0.00 0.00 0.00 59 1017.4
20260901034546 80 0 0.0 0.9 0.00 0.00 0.00 59 1017.4
20260901033059 80 0 0.0 0.9 0.00 0.00 0.00 57 1017.3
20260901031557 80 0 0.0 0.9 0.00 0.00 0.00 58 1017.4
20260901030047 80 0 0.0 0.0 0.00 0.00 0.00 58 1017.2
20260901024556 80 0 0.0 0.9 0.00 0.00 0.00 59 1016.9
20260901023050 80 0 0.0 0.0 0.00 0.00 0.00 58 1016.6
20260901021549 80 0 0.0 0.0 0.00 0.00 0.00 56 1016.3
20260901020100 81 0 0.0 0.0 0.00 0.00 0.00 54 1015.9
20260901014600 82 0 0.0 0.0 0.00 0.00 0.00 52 1015.9
20260901013054 84 0 0.0 0.0 0.00 0.00 0.00 50 1015.7
20260901011545 86 0 0.0 0.0 0.00 0.00 0.00 48 1015.5
20260901010054 88 0 0.0 0.0 0.00 0.00 0.00 45 1015.5
20260901004600 90 0 0.0 0.0 0.00 0.00 0.00 43 1015.5
20260901003049 92 0 0.0 0.9 0.00 0.00 0.00 41 1015.4
20260901001554 94 0 0.0 0.9 0.00 0.00 0.00 38 1015.3
20260901000106 95 0 0.0 1.7 0.00 0.00 0.00 37 1015.5
20260831234612 96 106 0.0 1.7 0.00 0.00 0.00 36 1015.5
20260831233049 97 0 0.0 2.6 0.00 0.00 0.00 35 1015.6
20260831231555 97 0 0.0 3.5 0.00 0.00 0.00 34 1015.6
20260831230051 99 0 0.0 3.5 0.00 0.00 0.00 32 1015.6
20260831224545 101 0 0.0 2.6 0.00 0.00 0.00 31 1015.6
20260831223054 101 224 0.0 2.6 0.00 0.00 0.00 31 1015.6
20260831221551 103 0 0.0 2.6 0.00 0.00 0.00 30 1015.7
20260831220049 102 126 0.9 7.0 0.00 0.00 0.00 30 1015.7
20260831214604 102 0 0.0 2.6 0.00 0.00 0.00 30 1015.8
20260831213053 102 72 0.9 4.3 0.00 0.00 0.00 30 1015.8
20260831211548 103 94 0.9 4.3 0.00 0.00 0.00 30 1015.9
20260831210046 102 0 0.0 6.1 0.00 0.00 0.00 31 1016.1
20260831204605 102 192 0.0 1.7 0.00 0.00 0.00 31 1016.3
20260831203049 103 56 0.9 7.0 0.00 0.00 0.00 30 1016.5
20260831201557 104 115 0.9 4.3 0.00 0.00 0.00 30 1016.6
20260831200056 103 271 0.0 5.2 0.00 0.00 0.00 32 1016.8
20260831194555 103 0 0.9 5.2 0.00 0.00 0.00 31 1016.8
20260831193047 102 217 0.0 4.3 0.00 0.00 0.00 32 1017.0
20260831191544 104 200 0.9 3.5 0.00 0.00 0.00 31 1017.2
20260831190054 102 0 0.9 5.2 0.00 0.00 0.00 32 1017.3
20260831184549 102 200 0.9 4.3 0.00 0.00 0.00 33 1017.5